period_start,C,m1,H,J0,J1,J2,J3,J4,J5,JA,JB,JC,JD,JJ,JK,JN,#
2016-03-21 00:01:37,0.14,2.18,0.00,27.70,30.34,33.20,14.41,49.88,1026.91,2020.01,2735.79,2544.67,2883.07,599.78,592.46,15.60,0000 0000 0000 0000 000000
2016-03-21 00:06:38,0.12,2.19,0.00,27.72,30.35,33.20,14.34,49.84,1026.97,2020.00,2733.69,2543.31,2881.38,599.67,592.29,15.65,0000 0000 0000 0000 000000
2016-03-21 00:11:40,0.14,2.19,0.00,27.72,30.35,33.20,14.41,49.85,1027.07,2020.00,2731.55,2541.69,2879.68,600.08,592.88,15.70,0000 0000 0000 0000 000000
2016-03-21 00:16:41,0.12,2.20,0.00,27.72,30.37,33.20,14.28,49.88,1027.09,2020.00,2729.32,2540.27,2878.19,599.61,592.33,15.75,0000 0000 0000 0000 000000
2016-03-21 00:21:42,0.14,2.21,0.00,27.73,30.37,33.21,14.36,49.94,1027.20,2020.00,2727.11,2538.74,2876.51,599.90,592.74,15.80,0000 0000 0000 0000 000000
2016-03-21 00:26:43,0.13,2.21,0.00,27.75,30.37,33.22,14.40,50.03,1027.21,2020.00,2724.72,2537.23,2874.76,600.16,592.71,15.85,0000 0000 0000 0000 000000
2016-03-21 00:31:44,0.13,2.22,0.00,27.75,30.39,33.22,14.30,49.92,1027.26,2020.00,2722.48,2535.71,2873.11,599.89,592.75,15.90,0000 0000 0000 0000 000000
2016-03-21 00:36:46,0.13,2.23,0.00,27.75,30.40,33.23,14.40,50.01,1027.36,2020.00,2720.21,2534.20,2871.41,600.22,593.04,15.95,0000 0000 0000 0000 000000
2016-03-21 00:41:47,0.14,2.24,0.00,27.77,30.40,33.23,14.34,49.92,1027.36,2020.00,2718.05,2532.73,2869.75,599.73,592.55,16.00,0000 0000 0000 0000 000000
2016-03-21 00:46:48,0.11,2.24,0.00,27.77,30.40,33.58,14.42,50.02,1027.36,2020.00,2715.92,2531.39,2868.12,600.15,592.95,16.05,0000 0000 0000 0000 000000
2016-03-21 00:51:49,0.13,2.25,0.00,27.77,30.39,33.59,14.38,49.97,1027.36,2020.00,2713.78,2529.92,2866.52,599.74,592.58,16.10,0000 0000 0000 0000 000000
2016-03-21 00:56:51,0.12,2.25,0.00,27.77,30.37,33.53,14.38,49.84,1027.37,2020.00,2711.69,2528.56,2864.89,599.99,592.77,16.15,0000 0000 0000 0000 000000
2016-03-21 01:01:52,0.11,2.26,0.00,27.79,30.37,33.47,14.36,49.89,1027.36,2020.00,2709.68,2527.27,2863.44,599.95,592.78,16.20,0000 0000 0000 0000 000000
2016-03-21 01:06:53,0.13,2.27,0.00,27.83,30.36,33.45,14.38,49.92,1027.37,2020.01,2707.60,2525.76,2861.81,600.22,592.92,16.25,0000 0000 0000 0000 000000
2016-03-21 01:11:55,0.11,2.27,0.00,27.88,30.35,33.41,14.34,49.91,1027.37,2020.01,2705.55,2524.43,2860.25,600.07,592.65,16.30,0000 0000 0000 0000 000000
2016-03-21 01:16:56,0.12,2.28,0.00,27.90,30.35,33.40,14.37,50.04,1027.37,2020.03,2703.54,2523.09,2858.69,599.70,592.20,16.35,0000 0000 0000 0000 000000
2016-03-21 01:21:58,0.13,2.29,0.00,27.92,30.33,33.41,14.36,49.95,1027.37,2020.04,2701.50,2521.68,2857.15,599.96,592.43,16.40,0000 0000 0000 0000 000000
2016-03-21 01:26:59,0.12,2.29,0.00,27.96,30.32,33.43,14.39,49.82,1027.37,2020.05,2699.53,2520.36,2855.57,600.09,592.58,16.45,0000 0000 0000 0000 000000
2016-03-21 01:32:00,0.12,2.30,0.00,28.01,30.32,33.43,14.40,49.87,1027.37,2020.11,2697.52,2518.96,2854.01,599.95,592.28,16.50,0000 0000 0000 0000 000000
2016-03-21 01:37:02,0.14,2.31,0.00,28.04,30.32,33.45,14.29,49.90,1027.40,2020.23,2695.51,2517.65,2852.50,599.83,592.17,16.55,0000 0000 0000 0000 000000
2016-03-21 01:42:03,0.10,2.31,0.00,28.07,30.33,33.43,14.35,49.90,1027.51,2020.10,2693.47,2516.20,2850.80,600.31,592.57,16.60,0000 0000 0000 0000 000000
2016-03-21 01:47:05,0.13,2.32,0.00,28.04,30.34,33.47,14.32,49.91,1027.64,2020.09,2691.35,2514.73,2849.19,599.87,592.29,16.65,0000 0000 0000 0000 000000
2016-03-21 01:52:06,0.12,2.32,0.00,28.06,30.35,33.33,14.36,49.88,1027.72,2020.07,2689.33,2513.36,2847.57,600.25,592.67,16.70,0000 0000 0000 0000 000000
2016-03-21 01:57:07,0.13,2.33,0.00,28.18,30.36,33.24,14.39,49.90,1027.79,2020.04,2687.33,2511.86,2845.84,600.24,592.43,16.75,0000 0000 0000 0000 000000
2016-03-21 02:02:09,0.13,2.34,0.00,28.28,30.39,33.30,14.43,49.98,1027.83,2020.02,2685.25,2510.39,2844.16,599.94,592.12,16.80,0000 0000 0000 0000 000000
2016-03-21 02:07:10,0.15,2.34,0.00,28.36,30.41,33.35,14.31,49.93,1027.85,2020.00,2683.03,2508.76,2842.33,599.88,591.80,16.85,0000 0000 0000 0000 000000
2016-03-21 02:12:11,0.14,2.35,0.00,28.43,30.45,33.41,14.31,50.02,1027.85,2020.00,2680.74,2507.13,2840.46,599.93,591.61,16.90,0000 0000 0000 0000 000000
2016-03-21 02:17:12,0.14,2.36,0.00,28.49,30.49,33.47,14.35,49.90,1027.85,2020.00,2678.46,2505.47,2838.59,600.08,591.90,16.95,0000 0000 0000 0000 000000
2016-03-21 02:22:14,0.13,2.37,0.00,28.55,30.53,33.55,14.30,49.88,1027.85,2019.93,2676.20,2503.79,2836.71,599.78,591.32,17.00,0000 0000 0000 0000 000000
2016-03-21 02:27:15,0.08,2.37,0.00,28.61,30.58,33.64,14.35,49.87,1027.87,2019.53,2673.96,2502.21,2834.77,600.04,591.56,17.05,0000 0000 0000 0000 000000
2016-03-21 02:32:17,0.11,2.38,0.00,28.66,30.63,33.71,14.29,49.70,1027.91,2019.05,2671.70,2500.56,2832.88,599.94,591.21,17.10,0000 0000 0000 0000 000000
2016-03-21 02:37:18,0.15,2.38,0.00,28.72,30.69,33.78,14.26,49.80,1028.06,2019.00,2669.38,2498.83,2830.98,600.08,591.46,17.15,0000 0000 0000 0000 000000
2016-03-21 02:42:19,0.14,2.39,0.00,28.78,30.74,33.85,14.32,49.73,1028.24,2018.98,2667.14,2497.18,2829.07,599.92,591.18,17.20,0000 0000 0000 0000 000000
2016-03-21 02:47:21,0.12,2.40,0.00,28.83,30.80,33.93,14.41,49.85,1028.32,2018.76,2664.78,2495.58,2827.05,600.17,591.43,17.25,0000 0000 0000 0000 000000
2016-03-21 02:52:22,0.08,2.40,0.00,28.87,30.86,34.01,14.32,49.82,1028.33,2018.12,2662.46,2493.91,2825.11,600.01,591.23,17.30,0000 0000 0000 0000 000000
2016-03-21 02:57:23,0.13,2.41,0.00,28.91,30.92,34.05,14.29,49.68,1028.33,2018.01,2660.18,2492.28,2823.25,599.95,591.04,17.35,0000 0000 0000 0000 000000
2016-03-21 03:02:24,0.15,2.42,0.00,28.96,30.97,34.11,14.29,49.76,1028.35,2017.99,2657.83,2490.61,2821.32,600.00,591.01,17.40,0000 0000 0000 0000 000000
2016-03-21 03:07:26,0.13,2.43,0.00,28.99,31.03,34.17,14.27,49.75,1028.34,2017.82,2655.41,2488.83,2819.33,599.70,590.66,17.45,0000 0000 0000 0000 000000
2016-03-21 03:12:27,0.09,2.43,0.00,29.02,31.08,34.22,14.33,49.67,1028.36,2017.25,2653.02,2487.17,2817.39,599.83,590.76,17.50,0000 0000 0000 0000 000000
2016-03-21 03:17:28,0.14,2.43,0.00,29.06,31.14,34.25,14.29,49.77,1028.36,2017.01,2650.61,2485.43,2815.50,600.04,590.99,17.55,0000 0000 0000 0000 000000
2016-03-21 03:22:30,0.16,2.44,0.00,29.08,31.19,34.30,14.36,49.82,1028.37,2017.00,2648.22,2483.67,2813.54,599.76,590.55,17.60,0000 0000 0000 0000 000000
2016-03-21 03:27:31,0.14,2.45,0.00,29.11,31.24,34.34,14.33,49.82,1028.36,2016.92,2645.83,2481.91,2811.54,600.11,590.80,17.65,0000 0000 0000 0000 000000
2016-03-21 03:32:32,0.08,2.46,0.00,29.13,31.29,34.38,14.36,49.73,1028.43,2016.40,2643.39,2480.23,2809.53,600.24,591.01,17.70,0000 0000 0000 0000 000000
2016-03-21 03:37:33,0.13,2.46,0.00,29.15,31.34,34.42,14.31,49.78,1028.61,2016.05,2641.08,2478.54,2807.64,599.77,590.61,17.75,0000 0000 0000 0000 000000
2016-03-21 03:42:35,0.16,2.47,0.00,29.17,31.38,34.45,14.25,49.70,1028.67,2016.00,2638.64,2476.77,2805.64,599.57,590.37,17.80,0000 0000 0000 0000 000000
2016-03-21 03:47:36,0.16,2.48,0.00,29.20,31.43,34.49,14.45,49.77,1028.78,2015.99,2636.24,2475.04,2803.66,600.38,591.17,17.85,0000 0000 0000 0000 000000
2016-03-21 03:52:37,0.16,2.49,0.00,29.24,31.47,34.53,14.40,49.78,1028.81,2015.85,2633.49,2473.12,2801.43,600.15,590.87,17.90,0000 0000 0000 0000 000000
2016-03-21 03:57:39,0.12,2.49,0.00,29.28,31.51,34.56,14.25,49.70,1028.82,2015.19,2630.51,2470.96,2798.97,599.77,590.43,17.95,0000 0000 0000 0000 000000
2016-03-21 04:02:40,0.17,2.50,0.00,29.32,31.56,34.60,14.26,49.75,1028.82,2015.02,2627.59,2468.83,2796.60,599.76,590.36,18.00,0000 0000 0000 0000 000000
2016-03-21 04:07:41,0.15,2.51,0.00,29.34,31.60,34.64,14.29,49.78,1028.82,2014.99,2625.20,2467.13,2794.66,600.04,590.59,18.05,0000 0000 0000 0000 000000
2016-03-21 04:12:42,0.20,2.52,0.00,29.37,31.64,34.67,14.39,49.79,1028.83,2014.98,2622.44,2465.09,2792.33,600.34,590.71,18.10,0000 0000 0000 0000 000000
2016-03-21 04:17:44,0.24,2.53,0.00,29.39,31.68,34.71,14.32,49.80,1028.85,2014.61,2618.19,2461.92,2788.86,600.05,590.39,18.15,0000 0000 0000 0000 000000
2016-03-21 04:22:45,0.16,2.54,0.00,29.42,31.72,34.74,14.33,49.73,1028.86,2014.12,2614.66,2459.39,2786.01,600.00,590.41,18.20,0000 0000 0000 0000 000000
2016-03-21 04:27:46,0.16,2.55,0.00,29.45,31.76,34.77,14.31,49.84,1028.97,2014.00,2612.20,2457.63,2784.02,599.94,590.36,18.25,0000 0000 0000 0000 000000
2016-03-21 04:32:47,0.14,2.56,0.00,29.48,31.80,34.81,14.32,49.81,1028.98,2014.00,2609.89,2455.99,2782.09,600.01,590.34,18.30,0000 0000 0000 0000 000000
2016-03-21 04:37:49,0.15,2.57,0.00,29.50,31.83,34.84,14.37,49.77,1029.10,2013.99,2607.58,2454.33,2780.21,599.84,590.21,18.36,0000 0000 0000 0000 000000
2016-03-21 04:42:50,0.14,2.57,0.00,29.53,31.87,34.88,14.30,49.84,1029.12,2013.88,2605.16,2452.61,2778.26,600.05,590.33,18.41,0000 0000 0000 0000 000000
2016-03-21 04:47:51,0.11,2.58,0.00,29.56,31.91,34.91,14.26,49.77,1029.28,2013.37,2602.53,2450.74,2776.20,600.30,590.64,18.46,0000 0000 0000 0000 000000
2016-03-21 04:52:53,0.14,2.59,0.00,29.59,31.95,34.95,14.36,49.82,1029.31,2013.05,2600.16,2449.03,2774.19,600.32,590.56,18.51,0000 0000 0000 0000 000000
2016-03-21 04:57:54,0.14,2.59,0.00,29.61,31.99,34.98,14.31,49.85,1029.31,2013.00,2597.87,2447.43,2772.33,600.02,590.34,18.56,0000 0000 0000 0000 000000
2016-03-21 05:02:55,0.15,2.60,0.00,29.64,32.02,34.99,14.17,49.62,1029.31,2012.99,2595.53,2445.73,2770.41,599.61,589.86,18.61,0000 0000 0000 0000 000000
2016-03-21 05:07:56,0.13,2.61,0.00,29.66,32.06,35.04,14.31,49.67,1029.31,2012.94,2593.33,2444.15,2768.61,599.94,590.11,18.66,0000 0000 0000 0000 000000
2016-03-21 05:12:57,0.10,2.61,0.00,29.68,32.09,35.07,14.37,49.63,1029.32,2012.56,2591.07,2442.56,2766.75,600.08,590.20,18.71,0000 0000 0000 0000 000000
2016-03-21 05:17:59,0.11,2.62,0.00,29.70,32.13,35.10,14.24,49.69,1029.31,2012.07,2588.82,2440.92,2764.87,599.54,589.67,18.76,0000 0000 0000 0000 000000
2016-03-21 05:23:00,0.13,2.63,0.00,29.73,32.16,35.13,14.33,49.63,1029.33,2012.01,2586.56,2439.37,2763.06,599.98,590.07,18.81,0000 0000 0000 0000 000000
2016-03-21 05:28:01,0.15,2.63,0.00,29.75,32.20,35.17,14.32,49.57,1029.33,2012.00,2584.37,2437.72,2761.26,600.04,590.05,18.86,0000 0000 0000 0000 000000
2016-03-21 05:33:03,0.14,2.64,0.00,29.79,32.23,35.19,14.34,49.65,1029.36,2011.99,2582.15,2436.20,2759.50,599.96,589.97,18.91,0000 0000 0000 0000 000000
2016-03-21 05:38:04,0.15,2.65,0.00,29.80,32.26,35.22,14.21,49.55,1029.53,2011.93,2579.96,2434.61,2757.66,599.48,589.64,18.96,0000 0000 0000 0000 000000
2016-03-21 05:43:05,0.10,2.66,0.00,29.84,32.29,35.25,14.34,49.52,1029.70,2011.71,2577.85,2433.04,2755.91,599.97,590.04,19.01,0000 0000 0000 0000 000000
2016-03-21 05:48:07,0.10,2.66,0.00,29.86,32.32,35.27,14.28,49.65,1029.71,2011.19,2575.64,2431.56,2754.13,599.66,589.72,19.06,0000 0000 0000 0000 000000
2016-03-21 05:53:08,0.12,2.66,0.00,29.86,32.35,35.32,14.33,49.62,1029.79,2011.02,2573.44,2430.06,2752.38,600.16,590.16,19.11,0000 0000 0000 0000 000000
2016-03-21 05:58:09,0.14,2.67,0.00,29.84,32.38,35.34,14.35,49.63,1029.80,2011.00,2571.35,2428.61,2750.77,600.09,590.21,19.16,0000 0000 0000 0000 000000
2016-03-21 06:03:11,0.15,2.68,0.00,29.82,32.41,35.39,14.43,49.63,1029.80,2011.00,2569.14,2427.07,2749.13,600.21,590.39,19.21,0000 0000 0000 0000 000000
2016-03-21 06:08:12,0.14,2.69,0.00,29.79,32.43,35.41,14.33,49.53,1029.80,2010.99,2566.91,2425.52,2747.32,599.73,589.97,19.26,0000 0000 0000 0000 000000
2016-03-21 06:13:13,0.14,2.69,0.00,29.76,32.45,35.43,14.40,49.65,1029.81,2010.98,2564.65,2423.96,2745.58,600.08,590.29,19.31,0000 0000 0000 0000 000000
2016-03-21 06:18:14,0.14,2.70,0.00,29.74,32.47,35.46,14.25,49.58,1029.83,2010.96,2562.47,2422.48,2743.81,599.98,590.44,19.36,0000 0000 0000 0000 000000
2016-03-21 06:23:15,0.12,2.71,0.00,29.69,32.49,35.45,14.29,49.67,1029.90,2010.79,2560.18,2420.86,2742.02,600.28,590.75,19.41,0000 0000 0000 0000 000000
2016-03-21 06:28:16,0.12,2.71,0.00,29.59,32.50,35.42,14.32,49.64,1030.02,2010.56,2558.16,2419.34,2740.30,600.15,590.94,19.46,0000 0000 0000 0000 000000
2016-03-21 06:33:18,0.12,2.72,0.00,29.36,32.50,35.43,14.48,49.66,1030.17,2010.31,2555.99,2417.82,2738.58,600.28,591.55,19.51,0000 0000 0000 0000 000000
2016-03-21 06:38:19,0.13,2.73,0.00,29.21,32.50,35.52,14.35,49.57,1030.06,2010.23,2553.75,2416.41,2736.88,600.25,591.67,19.56,0000 0000 0000 0000 000000
2016-03-21 06:43:20,0.15,2.73,0.00,29.09,32.50,35.57,14.35,49.64,1030.14,2010.32,2551.61,2414.98,2735.26,599.97,591.70,19.61,0000 0000 0000 0000 000000
2016-03-21 06:48:22,0.12,2.74,0.00,28.99,32.49,35.69,14.44,49.77,1030.22,2010.24,2549.50,2413.55,2733.66,599.93,591.89,19.66,0000 0000 0000 0000 000000
2016-03-21 06:53:23,0.16,2.75,0.00,28.89,32.47,35.75,14.44,49.86,1030.25,2010.49,2547.47,2412.20,2732.11,600.27,592.31,19.71,0000 0000 0000 0000 000000
2016-03-21 06:58:24,0.16,2.76,0.00,28.79,32.45,35.72,14.38,49.97,1030.18,2010.75,2545.49,2410.89,2730.60,599.64,592.05,19.76,0000 0000 0000 0000 000000
2016-03-21 07:03:26,0.13,2.76,0.00,28.69,32.42,35.67,14.41,49.87,1030.23,2010.83,2543.60,2409.62,2729.19,599.85,592.46,19.81,0000 0000 0000 0000 000000
2016-03-21 07:08:27,0.14,2.77,0.00,28.60,32.40,35.60,14.43,49.85,1030.28,2010.96,2541.64,2408.43,2727.75,600.20,592.98,19.86,0000 0000 0000 0000 000000
2016-03-21 07:13:29,0.11,2.78,0.00,28.51,32.36,35.52,14.47,49.91,1030.29,2010.98,2539.70,2407.17,2726.29,599.95,592.92,19.91,0000 0000 0000 0000 000000
2016-03-21 07:18:30,0.13,2.78,0.00,28.42,32.32,35.43,14.42,49.82,1030.29,2010.99,2537.73,2405.90,2724.84,600.04,593.24,19.96,0000 0000 0000 0000 000000
2016-03-21 07:23:32,0.11,2.79,0.00,28.33,32.28,35.34,14.48,49.88,1030.29,2010.99,2535.95,2404.75,2723.54,600.10,593.42,20.01,0000 0000 0000 0000 000000
2016-03-21 07:28:33,0.12,2.80,0.00,28.24,32.24,35.31,14.42,49.88,1030.29,2011.00,2534.07,2403.55,2722.18,599.79,593.20,20.06,0000 0000 0000 0000 000000
2016-03-21 07:33:34,0.13,2.80,0.00,28.16,32.19,35.24,14.49,49.99,1030.29,2011.10,2532.12,2402.37,2720.76,600.19,593.82,20.11,0000 0000 0000 0000 000000
2016-03-21 07:38:36,0.15,2.81,0.00,28.07,32.14,35.18,14.51,49.81,1030.29,2011.44,2530.30,2401.21,2719.50,600.49,594.38,20.16,0000 0000 0000 0000 000000
2016-03-21 07:43:37,0.15,2.82,0.00,27.99,32.09,35.14,14.42,49.77,1030.29,2011.92,2528.55,2400.12,2718.14,599.83,593.86,20.21,0000 0000 0000 0000 000000
2016-03-21 07:48:38,0.12,2.83,0.00,27.91,32.04,35.09,14.52,50.05,1030.29,2011.99,2526.69,2398.98,2716.84,600.35,594.60,20.26,0000 0000 0000 0000 000000
2016-03-21 07:53:40,0.11,2.83,0.00,27.82,31.98,34.98,14.45,50.02,1030.29,2012.00,2524.89,2397.84,2715.63,599.92,594.31,20.31,0000 0000 0000 0000 000000
2016-03-21 07:58:41,0.13,2.84,0.00,27.71,31.92,34.91,14.51,49.85,1030.30,2012.14,2523.19,2396.79,2714.43,599.98,594.50,20.36,0000 0000 0000 0000 000000
2016-03-21 08:03:42,0.17,2.85,0.00,27.62,31.87,34.86,14.51,49.94,1030.30,2012.74,2521.50,2395.77,2713.21,600.23,594.98,20.41,0000 0000 0000 0000 000000
2016-03-21 08:08:43,0.13,2.85,0.00,27.53,31.80,34.80,14.51,49.98,1030.31,2012.97,2519.70,2394.64,2711.91,599.97,594.87,20.46,0000 0000 0000 0000 000000
2016-03-21 08:13:44,0.11,2.86,0.00,27.43,31.74,34.73,14.58,49.90,1030.30,2012.99,2517.93,2393.60,2710.68,600.12,595.34,20.51,0000 0000 0000 0000 000000
2016-03-21 08:18:46,0.12,2.87,0.00,27.34,31.67,34.64,14.57,50.00,1030.32,2013.04,2516.14,2392.50,2709.45,599.96,595.27,20.56,0000 0000 0000 0000 000000
2016-03-21 08:23:47,0.18,2.87,0.00,27.25,31.61,34.60,14.49,50.05,1030.32,2013.58,2514.54,2391.55,2708.34,599.95,595.43,20.61,0000 0000 0000 0000 000000
2016-03-21 08:28:48,0.13,2.88,0.00,27.17,31.54,34.52,14.54,50.02,1030.32,2013.96,2512.60,2390.38,2707.03,599.98,595.78,20.66,0000 0000 0000 0000 000000
2016-03-21 08:33:50,0.11,2.89,0.00,27.08,31.47,34.43,14.55,49.98,1030.37,2013.99,2510.83,2389.36,2705.84,600.09,595.98,20.71,0000 0000 0000 0000 000000
2016-03-21 08:38:51,0.13,2.89,0.00,27.00,31.40,34.39,14.58,49.99,1030.49,2014.16,2509.19,2388.32,2704.68,599.96,596.09,20.76,0000 0000 0000 0000 000000
2016-03-21 08:43:52,0.18,2.90,0.00,26.92,31.34,34.34,14.58,50.11,1030.48,2014.83,2507.58,2387.37,2703.61,599.64,596.00,20.81,0000 0000 0000 0000 000000
2016-03-21 08:48:54,0.11,2.91,0.00,26.86,31.27,34.27,14.59,50.11,1030.55,2014.99,2505.87,2386.45,2702.53,599.94,596.39,20.86,0000 0000 0000 0000 000000
2016-03-21 08:53:55,0.14,2.91,0.00,26.83,31.19,34.19,14.62,49.97,1030.59,2015.18,2504.16,2385.40,2701.32,599.99,596.42,20.91,0000 0000 0000 0000 000000
2016-03-21 08:58:57,0.17,2.92,0.00,26.77,31.12,34.10,14.46,49.98,1030.77,2015.88,2502.58,2384.45,2700.21,599.82,596.59,20.96,0000 0000 0000 0000 000000
2016-03-21 09:03:58,0.10,2.93,0.00,26.66,31.05,34.05,14.64,50.11,1030.78,2015.99,2500.90,2383.56,2699.10,600.01,596.99,21.01,0000 0000 0000 0000 000000
2016-03-21 09:08:59,0.11,2.93,0.00,26.54,30.97,34.02,14.54,50.05,1030.76,2016.03,2499.14,2382.45,2697.86,599.85,597.09,21.06,0000 0000 0000 0000 000000
2016-03-21 09:14:00,0.19,2.94,0.00,26.44,30.90,33.92,14.50,50.07,1030.76,2016.66,2497.39,2381.49,2696.77,599.56,596.96,21.11,0000 0000 0000 0000 000000
2016-03-21 09:19:02,0.11,2.95,0.00,26.34,30.82,33.79,14.58,50.13,1030.78,2016.99,2495.78,2380.50,2695.72,600.00,597.60,21.16,0000 0000 0000 0000 000000
2016-03-21 09:24:03,0.10,2.96,0.00,26.26,30.74,33.69,14.51,50.09,1030.78,2017.11,2494.24,2379.62,2694.61,599.74,597.63,21.21,0000 0000 0000 0000 000000
2016-03-21 09:29:04,0.18,2.96,0.00,26.19,30.66,33.49,14.55,50.05,1030.78,2017.71,2492.70,2378.67,2693.47,599.92,597.82,21.26,0000 0000 0000 0000 000000
2016-03-21 09:34:05,0.11,2.97,0.00,26.12,30.58,33.42,14.60,50.19,1030.78,2017.99,2491.08,2377.68,2692.39,599.92,597.96,21.31,0000 0000 0000 0000 000000
2016-03-21 09:39:07,0.12,2.98,0.00,26.04,30.50,33.39,14.67,50.02,1030.77,2018.15,2489.34,2376.75,2691.37,600.23,598.25,21.36,0000 0000 0000 0000 000000
2016-03-21 09:44:08,0.16,2.99,0.00,25.97,30.42,33.30,14.67,50.03,1030.74,2018.88,2487.84,2375.85,2690.30,600.02,598.34,21.41,0000 0000 0000 0000 000000
2016-03-21 09:49:09,0.10,2.99,0.00,25.90,30.35,33.28,14.63,50.18,1030.71,2018.99,2486.27,2374.96,2689.20,600.00,598.26,21.46,0000 0000 0000 0000 000000
2016-03-21 09:54:10,0.11,3.00,0.00,25.83,30.27,33.32,14.59,50.14,1030.65,2019.08,2484.68,2374.01,2688.13,599.81,598.36,21.51,0000 0000 0000 0000 000000
2016-03-21 09:59:11,0.18,3.01,0.00,25.76,30.20,33.34,14.65,50.20,1030.74,2019.73,2483.08,2373.07,2687.06,600.00,598.76,21.56,0000 0000 0000 0000 000000
2016-03-21 10:04:13,0.11,3.01,0.00,25.69,30.12,33.28,14.69,50.25,1030.78,2019.99,2481.49,2372.11,2685.99,600.13,598.94,21.61,0000 0000 0000 0000 000000
2016-03-21 10:09:14,0.11,3.02,0.00,25.61,30.05,33.23,14.61,50.13,1030.77,2020.04,2479.67,2371.09,2684.85,599.92,599.02,21.66,0000 0000 0000 0000 000000
2016-03-21 10:14:15,0.19,3.03,0.00,25.50,29.98,33.18,14.61,50.22,1030.78,2020.71,2478.01,2370.12,2683.78,599.88,599.13,21.71,0000 0000 0000 0000 000000
2016-03-21 10:19:17,0.12,3.03,0.00,25.40,29.92,33.06,14.68,50.18,1030.78,2020.98,2476.34,2369.13,2682.64,600.06,599.61,21.76,0000 0000 0000 0000 000000
2016-03-21 10:24:19,0.12,3.04,0.00,25.29,29.85,32.95,14.66,50.27,1030.78,2021.01,2474.54,2368.07,2681.42,600.07,599.76,21.81,0000 0000 0000 0000 000000
2016-03-21 10:29:20,0.17,3.05,0.00,25.20,29.78,32.91,14.59,50.23,1030.78,2021.42,2472.84,2367.10,2680.25,599.71,599.55,21.86,0000 0000 0000 0000 000000
2016-03-21 10:34:21,0.13,3.06,0.00,25.12,29.73,32.82,14.74,50.38,1030.78,2021.96,2471.30,2366.31,2679.13,600.16,600.28,21.91,0000 0000 0000 0000 000000
2016-03-21 10:39:22,0.11,3.06,0.00,25.05,29.66,32.74,14.65,50.24,1030.78,2021.99,2469.54,2365.27,2677.88,599.88,600.08,21.96,0000 0000 0000 0000 000000
2016-03-21 10:44:24,0.15,3.07,0.00,24.98,29.60,32.64,14.68,50.27,1030.78,2022.22,2467.69,2364.25,2676.68,600.09,600.40,22.01,0000 0000 0000 0000 000000
2016-03-21 10:49:25,0.18,3.08,0.00,24.92,29.54,32.51,14.65,50.31,1030.78,2022.89,2465.84,2363.11,2675.43,599.87,600.34,22.06,0000 0000 0000 0000 000000
2016-03-21 10:54:27,0.12,3.09,0.00,24.86,29.48,32.42,14.71,50.24,1030.78,2022.99,2464.00,2361.96,2674.17,600.17,600.60,22.12,0000 0000 0000 0000 000000
2016-03-21 10:59:28,0.12,3.09,0.00,24.83,29.42,32.37,14.57,50.29,1030.78,2023.07,2462.27,2360.89,2672.91,599.63,600.35,22.17,0000 0000 0000 0000 000000
2016-03-21 11:04:30,0.18,3.10,0.00,24.80,29.37,32.32,14.70,50.20,1030.78,2023.64,2460.62,2359.91,2671.74,599.88,600.58,22.22,0000 0000 0000 0000 000000
2016-03-21 11:09:31,0.13,3.11,0.00,24.77,29.31,32.30,14.69,50.31,1030.78,2023.96,2458.96,2358.80,2670.53,600.18,600.92,22.27,0000 0000 0000 0000 000000
2016-03-21 11:14:32,0.12,3.11,0.00,24.78,29.25,32.25,14.68,50.30,1030.78,2023.99,2457.06,2357.68,2669.21,600.01,600.92,22.32,0000 0000 0000 0000 000000
2016-03-21 11:19:33,0.12,3.12,0.00,24.77,29.19,32.21,14.67,50.33,1030.78,2024.03,2455.18,2356.53,2667.85,600.15,600.81,22.37,0000 0000 0000 0000 000000
2016-03-21 11:24:34,0.20,3.13,0.00,24.75,29.14,32.14,14.65,50.24,1030.78,2024.61,2453.42,2355.50,2666.66,600.09,600.88,22.42,0000 0000 0000 0000 000000
2016-03-21 11:29:36,0.13,3.14,0.00,24.76,29.08,32.09,14.62,50.17,1030.78,2024.97,2451.57,2354.31,2665.39,599.50,600.32,22.47,0000 0000 0000 0000 000000
2016-03-21 11:34:37,0.10,3.14,0.00,24.73,29.03,32.04,14.66,50.18,1030.78,2024.99,2450.11,2353.36,2664.17,599.88,600.76,22.52,0000 0000 0000 0000 000000
2016-03-21 11:39:38,0.14,3.15,0.00,24.70,28.97,32.00,14.67,50.11,1030.75,2025.16,2448.10,2352.22,2662.87,600.14,601.03,22.57,0000 0000 0000 0000 000000
2016-03-21 11:44:39,0.19,3.16,0.00,24.67,28.91,31.96,14.59,49.99,1030.67,2025.79,2446.29,2351.12,2661.62,599.64,600.53,22.62,0000 0000 0000 0000 000000
2016-03-21 11:49:40,0.12,3.17,0.00,24.63,28.86,31.92,14.66,50.17,1030.41,2025.97,2444.31,2349.92,2660.23,599.88,600.67,22.67,0000 0000 0000 0000 000000
2016-03-21 11:54:41,0.13,3.17,0.00,24.60,28.80,31.90,14.72,50.17,1030.36,2025.99,2442.55,2348.76,2658.86,599.97,600.70,22.72,0000 0000 0000 0000 000000
2016-03-21 11:59:43,0.13,3.18,0.00,24.56,28.75,31.85,14.62,50.02,1030.48,2026.04,2440.80,2347.65,2657.57,600.03,600.97,22.77,0000 0000 0000 0000 000000
2016-03-21 12:04:44,0.17,3.19,0.00,24.51,28.70,31.81,14.72,50.10,1030.39,2026.40,2438.97,2346.51,2656.31,600.47,601.53,22.82,0000 0000 0000 0000 000000
2016-03-21 12:09:46,0.16,3.20,0.00,24.45,28.65,31.78,14.70,50.19,1030.65,2026.91,2437.35,2345.46,2654.89,599.83,601.14,22.87,0000 0000 0000 0000 000000
2016-03-21 12:14:47,0.13,3.20,0.00,24.40,28.60,31.72,14.70,50.18,1030.36,2026.99,2435.28,2344.20,2653.50,600.20,601.48,22.92,0000 0000 0000 0000 000000
2016-03-21 12:19:48,0.12,3.21,0.00,24.32,28.55,31.70,14.65,50.27,1030.30,2027.00,2433.37,2343.00,2652.09,599.86,601.22,22.97,0000 0000 0000 0000 000000
2016-03-21 12:24:50,0.17,3.22,0.00,24.22,28.51,31.67,14.73,50.19,1030.30,2027.11,2431.36,2341.67,2650.61,599.99,601.56,23.02,0000 0000 0000 0000 000000
2016-03-21 12:29:51,0.19,3.23,0.00,24.11,28.46,31.65,14.81,50.30,1030.29,2027.52,2429.52,2340.46,2649.17,600.29,602.09,23.07,0000 0000 0000 0000 000000
2016-03-21 12:34:52,0.16,3.23,0.00,24.01,28.42,31.65,14.74,50.24,1030.29,2027.93,2427.65,2339.24,2647.69,600.21,602.30,23.12,0000 0000 0000 0000 000000
2016-03-21 12:39:53,0.12,3.24,0.00,23.90,28.38,31.62,14.74,50.17,1030.29,2027.99,2425.76,2338.02,2646.28,600.12,602.38,23.17,0000 0000 0000 0000 000000
2016-03-21 12:44:54,0.16,3.25,0.00,23.83,28.33,31.60,14.67,50.15,1030.29,2027.99,2423.59,2336.64,2644.70,599.82,602.25,23.22,0000 0000 0000 0000 000000
2016-03-21 12:49:56,0.14,3.26,0.00,23.76,28.29,31.58,14.78,50.24,1030.26,2028.01,2421.23,2335.28,2643.16,600.26,602.78,23.27,0000 0000 0000 0000 000000
2016-03-21 12:54:57,0.15,3.26,0.00,23.71,28.25,31.56,14.76,50.11,1029.90,2028.08,2419.28,2333.92,2641.61,600.10,602.38,23.32,0000 0000 0000 0000 000000